Regional Weather Roundup
Issued by NWS Kansas City/Pleasant Hill, MO

Home | Current Version | Previous Version | Text Only | Print | Product List | Glossary On
Versions: 1 2 3 4 5 6 7 8 9 10 11 12 13 14 15 16 17 18 19 20 21 22 23 24 25 26 27
000
ASUS43 KEAX 251010
RWREAX

WEATHER ROUNDUP FOR EASTERN KANSAS AND NORTHWEST MISSOURI
NATIONAL WEATHER SERVICE KANSAS CITY/PLEASANT HILL MO
500 AM CDT SAT MAR 25 2017

KSZ040-057-103>105-MOZ028-029-037-043-251100-
...KANSAS CITY METROPOLITAN AREA...

CITY           SKY/WX    TMP DP  RH WIND       PRES   REMARKS
K.C. INTL      CLOUDY    55  54  96 E8        29.76R
K.C. DOWNTOWN  CLOUDY    57  51  80 E7        29.75R
LEES SUMMIT    MOCLDY    52  49  89 E8        29.76S
OLATHE - IXD   CLOUDY    50  49  96 W10       29.77R
OLATHE - OJC   CLOUDY    51  51 100 N6        29.75R FOG
LAWRENCE       CLOUDY    48  47  96 NW14      29.78R FOG

$$

MOZ001>008-011>017-020>025-030>033-038>040-044>046-053-054-251100-
...NORTHERN AND CENTRAL MISSOURI...

CITY           SKY/WX    TMP DP  RH WIND       PRES   REMARKS
ST. JOSEPH     LGT RAIN  49  49 100 N12       29.80R FOG
WARRENSBURG    PTCLDY    52  45  76 E6        29.76F
WHITEMAN AFB   PTCLDY    51  51 100 E3        29.75F
CLINTON        PTCLDY    48  46  93 CALM      29.76S
SEDALIA        CLOUDY    52  49  89 SE7       29.78F
WARSAW         NOT AVBL
CHILLICOTHE      N/A     56  54  93 NE6       29.81R
KIRKSVILLE     CLOUDY    56  55  97 NE10      29.82R

$$

MOZ041-047>049-056>058-063>065-088>090-097-251100-
...EASTERN AND SOUTHERN MISSOURI...

CITY           SKY/WX    TMP DP  RH WIND       PRES   REMARKS
ST. LOUIS INTL CLOUDY    59  57  93 SE14      29.80F
SPIRIT OF STL  CLOUDY    59  57  93 SE6       29.80F
COLUMBIA       CLOUDY    55  55 100 S5        29.80R
JEFFERSON CITY CLOUDY    58  52  80 S6        29.79R
ROLLA          CLOUDY    53  51  93 S10       29.78S
OSAGE BEACH    CLOUDY   N/A N/A N/A S7        29.79F
SPRINGFIELD    CLOUDY    53  50  89 SE13      29.74F
BRANSON        CLOUDY    50  50 100 SE14      29.77S FOG
JOPLIN         LGT RAIN  53  52  96 N5        29.73S
WEST PLAINS    LGT RAIN  53  52  96 SE10      29.84F

$$

IAZ060-094-KSZ022-034>040-054-083-096-NEZ052-066-093-251100-
...KANSAS...SOUTHEAST NEBRASKA AND IOWA...

CITY           SKY/WX    TMP DP  RH WIND       PRES   REMARKS
TOPEKA         LGT RAIN  46  46 100 NW14G21   29.81R
MANHATTAN      LGT RAIN  43  41  93 N5        29.88R FOG
EMPORIA        LGT RAIN  44  44 100 NW20      29.80R FOG
CHANUTE        CLOUDY    50  47  89 NW17      29.76R
WICHITA        LGT RAIN  43  42  97 N24G33    29.87R WCI  33
OMAHA          LGT RAIN  41  37  86 N17G25    29.93S FOG     WCI  32
LINCOLN        RAIN      41  39  93 N17       29.96R FOG     WCI  32
FALLS CITY     LGT RAIN  44  42  93 N13       29.84R
LAMONI         FOG       47  47 100 NE12      29.83R VSB 1/4
DES MOINES     FOG       43  41  93 NE18G25   29.89F VSB 1   WCI  35

$$





USA.gov is the U.S. government's official web portal to all federal, state and local government web resources and services.